SCP
0 0 0 0 0 0 0 1 1 1 1 0 0 0 0 1 1 1 3 4 4 3 4 7 9 8 6 5 4 5 6 6 5 4 2 1 1 1 1 2 3 3 2 1
0 0 0 0 0 0 0 1 1 1 1 0 0 0 0 1 1 2 3 4 4 4 5 7 8 7 5 5 4 4 5 6 6 5 3 2 1 1 1 2 2 2 2 1
0 0 0 0 0 0 0 1 1 1 1 0 0 0 1 1 2 2 2 3 4 5 5 6 6 6 5 5 5 5 5 5 6 5 3 2 1 1 1 2 2 2 1 1
0 0 0 0 0 0 0 1 1 1 1 0 0 0 1 2 3 2 2 3 4 5 5 5 5 6 6 6 6 6 5 5 5 5 3 2 1 1 1 1 2 1 1 1
0 0 0 0 0 0 0 1 1 1 1 0 0 0 1 2 3 2 2 3 4 5 5 5 6 7 8 7 6 5 5 5 5 5 4 3 2 1 1 2 2 1 1 1
0 0 0 0 0 0 0 1 1 1 1 0 0 0 1 2 2 2 2 3 4 5 5 6 7 9 9 8 6 4 4 4 5 6 6 5 4 3 2 2 2 2 2 2
0 0 0 0 0 0 0 0 1 1 0 0 0 0 1 1 2 2 2 3 3 4 5 5 7 9 10 8 6 4 2 3 5 7 8 7 6 5 4 3 3 3 3 3
0 0 0 1 1 0 0 0 0 0 0 0 0 0 1 1 2 2 2 3 4 5 6 7 8 10 10 8 5 3 2 3 5 7 8 8 8 7 6 5 5 4 4 4
1 1 1 1 1 1 0 0 0 0 0 0 0 1 1 1 2 2 3 4 5 7 9 10 11 11 10 8 5 3 3 3 4 5 6 6 7 8 7 7 7 6 6 5
0 1 1 1 1 1 0 0 0 0 0 0 0 1 1 1 1 2 3 5 7 8 10 12 12 12 12 11 8 5 4 4 3 3 3 4 5 6 6 7 7 7 6 6
0 0 0 0 1 1 0 0 0 0 0 0 0 0 1 1 1 2 4 5 7 7 8 9 11 13 15 14 11 8 6 5 4 3 3 3 3 4 4 5 5 5 5 4
0 0 0 0 0 0 0 0 0 0 0 0 0 0 1 1 1 2 3 4 5 5 4 5 9 13 16 17 15 11 9 7 6 4 4 3 3 4 3 3 3 3 3 3
0 0 0 0 0 0 1 0 0 0 0 0 0 0 1 1 1 1 2 3 3 3 3 3 7 13 18 19 18 15 12 10 8 7 6 5 4 4 4 4 3 3 3 3
0 0 0 0 0 0 1 1 0 0 0 0 1 1 1 1 1 1 1 2 2 2 2 2 7 16 21 21 20 19 16 13 11 10 8 6 5 5 5 4 3 2 2 3
0 0 0 0 0 1 1 1 0 0 1 1 2 2 2 1 1 1 1 1 2 1 1 1 6 17 23 23 23 23 21 17 14 13 11 8 6 5 5 4 3 2 1 1
0 0 0 0 1 1 1 1 1 1 1 1 2 2 2 1 1 1 1 1 1 1 1 1 5 16 25 29 31 32 28 21 16 13 12 9 7 6 5 4 2 1 1 0
0 0 0 1 1 1 1 1 1 1 1 1 1 1 1 1 1 1 1 1 1 1 1 1 4 14 27 36 39 37 30 22 17 14 12 10 8 7 5 3 2 1 0 0
0 0 0 1 1 1 1 1 1 1 1 1 1 1 1 1 1 1 1 1 2 1 1 1 3 10 24 35 37 35 29 24 20 15 11 9 8 7 5 3 2 1 1 1
0 0 0 0 0 0 0 1 1 1 1 1 1 1 1 1 2 2 2 2 2 2 1 1 2 5 13 21 29 34 33 27 21 14 9 7 7 6 5 3 2 1 1 1
0 0 0 0 0 0 0 1 1 1 1 1 1 1 1 1 2 2 2 2 2 1 1 1 1 3 5 11 23 33 32 24 17 12 8 7 7 6 4 3 2 2 2 1
1 1 0 0 0 0 0 1 1 1 1 1 1 1 1 1 1 1 1 1 1 1 1 1 1 2 4 8 16 22 21 17 14 11 9 7 6 5 5 4 3 2 2 2
1 1 0 0 0 0 1 1 1 0 1 1 1 1 1 1 1 2 2 1 1 1 1 1 1 1 2 4 8 10 12 13 12 10 6 5 5 6 6 6 4 3 2 2
1 0 0 0 0 0 1 1 1 1 1 1 1 1 1 2 2 2 2 2 1 1 1 1 1 1 1 1 2 6 10 11 9 6 3 3 5 7 8 9 7 4 3 2
1 1 1 1 1 1 1 1 1 1 1 1 1 1 2 3 2 2 2 1 1 1 1 1 1 1 1 1 1 4 6 6 4 2 1 2 5 8 10 11 9 6 4 3
2 1 1 1 1 1 1 1 1 2 2 2 2 2 2 2 2 1 1 1 1 1 1 1 1 1 1 1 1 2 2 2 1 1 1 2 4 8 10 11 10 7 5 4
1 1 1 1 1 1 1 1 1 2 2 2 2 2 2 2 1 1 1 1 1 1 1 1 1 1 1 1 1 1 1 1 1 1 1 2 4 7 10 10 9 7 6 4
Wind_Speed
3 3 7 11 11 10 7 6 8 11 7 4 7 9 9 8 8 8 9 10 10 11 10 9 10 10 9 8 9 9 8 7 6 4 4 4 3 3 2 2 3 4 3 3
1 9 14 10 9 9 9 9 9 9 6 4 5 8 7 7 10 10 11 11 11 9 8 9 10 9 9 9 8 8 8 8 7 5 4 3 3 3 3 2 2 3 3 3
10 11 9 9 10 10 11 10 9 8 5 3 1 6 6 5 5 6 8 9 10 12 12 12 11 10 10 9 9 8 7 7 6 6 4 3 2 2 1 1 2 2 3 3
9 11 10 9 10 9 10 10 8 5 2 4 2 4 8 5 4 5 6 7 9 10 10 11 11 11 11 10 9 8 7 6 6 6 5 6 4 3 3 3 2 2 3 3
9 7 8 10 12 9 9 8 5 4 3 2 2 2 7 2 4 6 6 8 8 9 11 11 11 11 11 10 9 8 7 6 6 6 6 6 4 3 2 2 2 2 2 2
11 8 7 9 9 7 6 2 3 3 3 2 5 3 7 5 7 7 7 8 8 9 10 9 9 9 8 8 7 7 7 6 6 6 6 6 5 4 3 2 2 2 1 2
8 9 8 6 6 6 0 4 3 4 3 6 3 2 6 6 5 7 9 9 8 9 10 10 10 9 8 8 8 7 8 7 7 7 6 6 6 6 5 4 3 3 2 2
4 7 6 5 7 6 4 7 7 4 4 5 2 3 5 4 1 2 6 8 9 8 9 10 11 11 10 9 8 8 8 7 7 7 6 5 5 4 3 4 4 4 3 3
5 7 5 5 4 6 3 3 7 7 2 1 3 3 5 3 2 1 3 5 6 7 9 10 9 9 9 9 8 8 8 7 7 7 6 5 5 5 4 4 3 3 2 3
5 3 5 3 1 1 5 5 5 5 3 3 3 3 4 4 2 1 2 4 4 4 6 8 8 9 8 8 7 7 7 8 7 6 6 5 5 5 5 4 3 3 3 2
4 4 5 2 3 3 1 2 3 4 5 5 3 6 4 5 3 2 2 4 5 5 6 7 7 8 8 7 6 6 6 6 6 6 5 5 4 3 4 4 4 4 3 3
2 4 4 6 6 4 4 4 5 4 3 4 4 6 2 2 2 3 3 3 4 5 5 6 7 7 7 7 6 6 6 6 6 6 5 5 4 4 4 4 4 4 3 3
2 4 0 5 5 3 1 1 3 4 4 3 4 6 2 1 2 2 3 3 4 5 6 5 5 6 7 6 6 5 6 6 5 6 6 5 4 4 4 4 4 4 4 3
4 4 6 6 6 3 2 2 1 4 3 4 5 4 3 1 1 1 2 2 5 6 6 6 5 6 6 6 6 6 5 5 5 5 6 5 5 5 5 4 3 3 3 4
4 2 3 4 3 1 0 2 2 2 5 6 5 4 4 4 3 2 2 3 4 6 5 6 6 5 5 6 5 5 5 5 5 5 5 5 5 4 4 3 3 3 3 3
3 1 0 1 1 2 1 2 1 1 1 3 3 2 3 1 2 3 4 4 4 4 5 5 5 4 4 5 5 5 5 5 5 5 5 5 4 4 4 4 4 3 3 2
0 2 1 2 2 2 2 2 1 1 1 3 3 3 1 1 2 4 4 4 4 4 4 4 4 4 4 3 4 5 5 4 4 4 4 4 4 4 4 4 4 3 3 2
4 3 3 1 2 3 5 2 2 4 2 1 2 2 3 3 3 3 4 4 4 4 4 3 3 3 3 4 3 3 4 4 4 3 3 4 4 4 4 4 4 4 3 3
6 5 3 3 3 3 2 2 0 2 1 3 2 2 2 2 3 2 2 2 4 4 3 3 3 3 3 3 4 4 3 3 3 3 3 3 4 4 4 4 4 4 3 3
3 4 4 3 3 4 4 5 4 4 1 3 2 3 3 4 2 2 1 2 3 3 2 2 2 2 3 3 3 3 3 3 2 3 3 3 3 4 5 5 5 4 3 4
3 2 2 2 2 2 4 5 3 3 4 2 1 2 2 2 4 3 2 2 3 3 3 3 3 2 2 2 4 3 3 2 2 2 2 2 3 4 4 4 4 3 3 3
2 2 1 2 1 3 5 3 2 3 2 2 2 2 2 2 2 2 3 3 3 3 3 3 3 2 1 2 4 3 3 3 2 1 1 1 2 2 2 3 3 3 3 3
2 1 2 3 3 3 1 1 2 1 0 1 2 3 3 3 2 2 2 3 3 3 3 3 3 2 1 1 3 3 3 2 2 1 1 1 1 1 2 2 3 3 3 3
2 3 2 1 1 2 1 1 1 1 1 1 3 4 4 4 3 3 3 3 3 2 3 3 3 2 0 1 2 3 2 2 2 1 1 1 1 1 1 1 2 3 3 3
2 3 2 1 2 3 4 3 2 3 4 3 2 3 4 5 3 3 3 3 3 2 2 3 3 2 1 1 1 2 2 3 2 1 1 1 1 1 1 2 2 3 4 5
2 0 1 3 3 1 2 3 2 3 3 3 4 3 3 4 3 3 2 2 2 2 2 2 2 2 1 0 0 1 1 3 2 1 1 1 1 1 1 1 2 3 3 4
Wind_Direction
221 173 226 228 215 221 240 253 267 271 265 230 239 239 236 228 211 204 197 188 188 187 178 164 162 159 155 157 156 158 155 156 147 148 153 154 162 170 171 178 170 168 166 159
281 243 237 236 237 235 241 255 267 281 264 239 252 258 243 217 209 203 194 186 185 174 160 164 163 157 158 161 160 159 160 160 161 162 164 165 161 170 177 184 177 175 170 168
215 241 240 237 244 245 249 238 246 255 286 312 321 300 272 248 221 203 195 182 174 172 170 169 167 163 159 161 162 162 168 165 167 156 138 122 103 89 107 167 189 195 183 179
238 245 249 251 246 233 253 249 238 236 234 268 200 270 279 249 232 204 194 177 179 174 170 171 168 165 166 169 162 160 167 167 166 155 150 152 158 169 188 185 192 200 191 186
241 234 236 245 247 234 241 248 228 220 205 270 280 212 271 232 216 210 191 177 183 176 170 170 167 170 169 167 165 166 165 167 163 157 157 157 162 175 167 162 171 193 207 197
244 249 226 231 249 240 242 312 356 29 69 280 247 202 265 235 212 195 194 184 179 169 164 164 160 159 163 164 163 160 158 165 162 157 157 163 165 162 157 166 178 197 214 217
266 263 251 236 263 284 193 87 26 355 358 257 259 194 252 253 215 190 190 188 178 163 162 159 158 159 161 161 163 163 163 166 168 164 165 170 171 170 175 182 188 192 206 224
226 265 251 236 215 221 218 148 163 198 228 271 313 230 258 260 242 184 180 173 160 160 164 165 167 165 164 164 162 165 168 171 171 171 174 173 171 171 179 187 188 194 207 216
201 246 262 245 220 180 182 185 174 153 201 256 261 265 296 335 15 53 134 140 155 160 161 164 163 163 163 165 169 172 170 170 175 178 176 176 178 177 181 187 188 196 209 210
176 249 277 278 4 335 164 160 101 122 160 238 262 236 238 266 264 256 139 144 154 160 164 164 163 163 164 168 167 167 166 172 175 175 177 180 186 186 182 177 184 196 207 207
165 191 279 309 218 216 113 121 128 139 158 163 230 259 228 209 212 186 173 162 155 155 166 162 165 163 161 159 159 164 167 168 173 175 176 173 180 182 176 177 190 196 199 201
161 147 238 252 249 206 166 170 148 157 220 175 186 254 280 165 154 147 148 147 153 144 148 155 159 157 157 161 163 165 169 172 179 176 172 174 178 181 184 190 197 198 201 205
118 115 55 329 336 355 74 136 140 141 132 170 191 255 289 74 78 108 134 137 128 115 123 139 151 154 159 163 167 171 171 175 174 169 171 175 182 190 197 202 201 198 197 199
105 133 167 202 225 228 274 302 170 134 161 197 208 226 270 248 137 134 132 126 134 128 132 142 152 162 164 165 169 174 175 172 168 171 174 182 194 198 202 203 198 197 194 189
76 147 210 216 229 175 255 278 258 192 182 177 200 199 226 219 190 156 135 109 128 134 142 151 159 163 167 167 169 168 171 172 169 168 179 193 195 193 192 196 198 194 191 196
49 138 121 274 117 82 356 328 293 302 160 158 151 213 266 241 69 86 113 122 128 148 157 148 148 151 162 170 174 170 172 180 169 175 189 192 183 186 194 197 194 195 203 209
73 125 104 259 280 44 321 295 122 98 70 155 173 220 218 99 121 145 146 128 137 153 154 150 153 163 166 166 172 178 182 176 171 185 191 186 181 185 196 194 188 196 206 204
170 151 145 162 46 225 232 248 138 121 64 83 116 152 159 194 186 144 129 133 140 143 146 151 151 157 161 158 156 167 163 157 164 174 184 184 179 182 188 187 196 204 201 204
168 158 145 141 174 224 282 320 86 152 68 12 54 67 67 79 83 45 53 108 145 149 147 156 167 161 148 151 155 141 143 146 155 171 195 192 187 184 183 189 203 207 200 208
94 118 131 142 161 212 252 301 312 117 118 342 60 81 106 89 100 262 322 79 95 108 110 118 113 127 138 152 138 141 143 141 174 203 207 196 190 192 195 199 203 203 202 212
44 50 110 146 176 234 292 318 18 122 228 258 124 120 135 147 192 213 158 115 112 119 118 114 102 99 137 140 129 127 130 166 209 221 209 203 203 202 204 202 205 204 207 210
100 97 111 124 156 251 332 28 93 226 242 182 176 181 181 142 124 129 139 140 119 112 117 114 103 78 97 121 127 144 173 198 186 152 157 196 207 214 212 206 215 209 197 203
72 172 175 171 204 244 280 159 244 170 93 260 190 198 165 139 134 132 144 143 132 133 136 127 123 100 71 134 141 162 206 188 153 136 176 215 223 226 218 214 219 212 201 205
358 18 67 58 286 297 304 342 3 111 132 237 172 173 153 146 142 143 149 145 134 141 149 134 124 120 355 233 175 177 193 167 138 140 227 233 228 264 276 254 221 211 209 208
340 5 21 320 299 344 354 5 17 40 43 53 75 117 143 133 136 147 155 153 150 147 145 135 141 146 204 227 217 191 173 155 141 165 250 248 236 239 265 262 239 220 218 206
326 128 171 241 259 219 282 316 45 62 48 63 81 67 87 112 119 117 138 151 143 137 140 137 143 148 145 94 297 257 205 162 155 171 250 248 246 252 252 250 285 273 246 230